STARLINK-32328 (62489 NORAD) Tracking and Keplerian Element Data

This shows tracking and keplerian element data for the satellite.

Feedback or suggestion? Click here.




ElementValue
Catalog62489
NameSTARLINK-32328
Epoch Orbit569
Epoch Day34.83335648
Epoch Year2025
RAAN25.5422
Inclination43.0008
Eccentricity0.0001571
Argument of Perigee271.1725
Mean Anonmoly137.7848
Mean Motion15.50583556
Decay Rate0.00084498
L11 62489U 25003C 25034.83335648 .00084498 00000+0 14304-2 0 9999
L22 62489 43.0008 25.5422 0001571 271.1725 137.7848 15.50583556 5696



Live tracking and technical data element details for STARLINK-32328 (NORAD 62489). STARLINK-32328 can be tracked NOW for your location showing map with azimuth and elevation plus other details from your city location.







IsCatalogInMostPopularTable: catalog: 62489, numindb: 15
Update: records affected: 1



GetName: 62489 STARLINK-32328

Hit Count: updated at: Mon, 19 May 2025 01:14:33 GMT